EW7082 Weather Reports


Display with metric or nautical units.
time (UTC)temp
F
wind
direction
speed
MPH
gust
MPH
rain 1hr
in
rain 24hr
in
rain mn
in
humidity
%
barometer
mb
20260503023705 76 303 0.0 0.0 0.00 0.00 0.00 51 1014.0
20260503023206 75 303 0.0 1.0 0.00 0.00 0.00 49 1014.0
20260503022704 75 303 1.0 1.0 0.00 0.00 0.00 48 1014.0
20260503021704 75 303 1.0 2.0 0.00 0.00 0.00 46 1014.1
20260503021204 75 303 2.0 3.0 0.00 0.00 0.00 44 1014.1
20260503020705 76 303 1.0 2.0 0.00 0.00 0.00 44 1014.2
20260503020204 76 303 2.0 3.0 0.00 0.00 0.00 45 1014.2
20260503015705 76 342 2.0 3.0 0.00 0.00 0.00 45 1014.2
20260503015204 76 311 2.0 3.0 0.00 0.00 0.00 43 1014.2
20260503014704 76 298 2.0 3.0 0.00 0.00 0.00 46 1014.3
20260503014205 77 279 2.0 3.0 0.00 0.00 0.00 45 1014.3
20260503013704 77 319 2.0 3.0 0.00 0.00 0.00 42 1014.3
20260503013204 77 309 1.0 3.0 0.00 0.00 0.00 41 1014.4
20260503012205 77 334 1.0 3.0 0.00 0.00 0.00 41 1014.5
20260503011704 77 263 0.0 3.0 0.00 0.00 0.00 42 1014.5
20260503011205 77 304 1.0 3.0 0.00 0.00 0.00 40 1014.6
20260503010706 76 266 1.0 3.0 0.00 0.00 0.00 41 1014.5
20260503010204 76 293 3.0 6.0 0.00 0.00 0.00 40 1014.6
20260503005205 76 261 3.0 3.0 0.00 0.00 0.00 40 1014.6
20260503004703 77 268 3.0 3.0 0.00 0.00 0.00 39 1014.6
20260503004204 76 325 2.0 3.0 0.00 0.00 0.00 37 1014.6
20260503003704 76 294 2.0 3.0 0.00 0.00 0.00 37 1014.6
20260503003204 76 232 2.0 3.0 0.00 0.00 0.00 43 1014.6
20260503002704 76 309 1.0 3.0 0.00 0.00 0.00 43 1014.7
20260503002206 75 277 3.0 7.0 0.00 0.00 0.00 41 1014.7
20260503001704 75 325 3.0 7.0 0.00 0.00 0.00 41 1014.7
20260503001204 75 274 2.0 6.0 0.00 0.00 0.00 40 1014.8
20260503000705 75 341 3.0 5.0 0.00 0.00 0.00 39 1014.8
20260503000204 75 45 2.0 9.0 0.00 0.00 0.00 41 1014.8
20260502235704 75 4 4.0 8.0 0.00 0.00 0.00 43 1014.9
20260502235205 75 10 3.0 6.0 0.00 0.00 0.00 44 1014.9
20260502234704 75 324 3.0 7.0 0.00 0.00 0.00 45 1014.9
20260502233704 75 341 3.0 7.0 0.00 0.00 0.00 44 1015.1
20260502233203 75 315 3.0 6.0 0.00 0.00 0.00 44 1015.1
20260502232204 75 284 1.0 3.0 0.00 0.00 0.00 48 1015.2
20260502231704 75 261 3.0 6.0 0.00 0.00 0.00 48 1015.3
20260502231204 75 291 1.0 5.0 0.00 0.00 0.00 46 1015.3
20260502230704 74 250 2.0 7.0 0.00 0.00 0.00 45 1015.6
20260502230203 74 271 5.0 7.0 0.00 0.00 0.00 45 1015.6
20260502225703 75 239 3.0 7.0 0.00 0.00 0.00 48 1015.6
20260502225205 74 275 3.0 7.0 0.00 0.00 0.00 45 1015.7
20260502224704 74 260 2.0 3.0 0.00 0.00 0.00 47 1015.8
20260502224205 74 272 3.0 8.0 0.00 0.00 0.00 50 1015.9
20260502223705 73 215 4.0 8.0 0.00 0.00 0.00 48 1016.0
20260502223204 73 217 3.0 5.0 0.00 0.00 0.00 52 1016.1
20260502222705 72 331 1.0 3.0 0.00 0.00 0.00 54 1016.2
20260502222204 72 280 3.0 7.0 0.00 0.00 0.00 51 1016.3
20260502221705 72 293 5.0 8.0 0.00 0.00 0.00 53 1016.5
20260502221204 71 295 3.0 5.0 0.00 0.00 0.00 53 1016.5
20260502220705 71 316 3.0 8.0 0.00 0.00 0.00 55 1016.5
20260502215704 71 305 5.0 8.0 0.00 0.00 0.00 55 1016.6
20260502215205 71 335 4.0 8.0 0.00 0.00 0.00 51 1016.7
20260502214705 71 305 3.0 9.0 0.00 0.00 0.00 53 1016.8
20260502214203 71 292 6.0 12.0 0.00 0.00 0.00 54 1016.7
20260502213704 71 299 5.0 8.0 0.00 0.00 0.00 54 1016.7
20260502213204 70 335 5.0 12.0 0.00 0.00 0.00 52 1016.8
20260502212705 70 324 7.0 12.0 0.00 0.00 0.00 55 1016.8
20260502212206 70 296 6.0 12.0 0.00 0.00 0.00 58 1016.9
20260502211704 70 310 5.0 12.0 0.00 0.00 0.00 58 1017.0
20260502211204 70 324 7.0 12.0 0.00 0.00 0.00 55 1017.0
20260502210705 70 304 4.0 9.0 0.00 0.00 0.00 59 1017.0
20260502210205 70 24 5.0 12.0 0.00 0.00 0.00 55 1017.1
20260502205704 69 313 3.0 8.0 0.00 0.00 0.00 57 1017.1
20260502205204 69 296 4.0 8.0 0.00 0.00 0.00 60 1017.1
20260502204703 69 285 5.0 10.0 0.00 0.00 0.00 61 1017.2
20260502204204 69 298 5.0 12.0 0.00 0.00 0.00 60 1017.2
20260502203705 69 299 4.0 10.0 0.00 0.00 0.00 62 1017.3
20260502203205 68 25 6.0 12.0 0.00 0.00 0.00 58 1017.3
20260502202704 69 336 4.0 10.0 0.00 0.00 0.00 60 1017.4
20260502202205 68 346 3.0 8.0 0.00 0.00 0.00 61 1017.4
20260502201705 68 288 5.0 9.0 0.00 0.00 0.00 64 1017.5
20260502201204 68 288 3.0 8.0 0.00 0.00 0.00 64 1017.5
20260502200705 68 290 6.0 12.0 0.00 0.00 0.00 64 1017.6
20260502200204 68 287 7.0 12.0 0.00 0.00 0.00 62 1017.6
20260502195204 67 305 5.0 13.0 0.00 0.00 0.00 64 1017.7
20260502194703 67 300 6.0 12.0 0.00 0.00 0.00 63 1017.7
20260502194205 67 308 6.0 12.0 0.00 0.00 0.00 62 1017.9
20260502193704 67 335 6.0 12.0 0.00 0.00 0.00 61 1017.9
20260502193204 67 277 7.0 12.0 0.00 0.00 0.00 63 1017.9
20260502192704 67 295 7.0 10.0 0.00 0.00 0.00 64 1017.9
20260502191704 67 285 7.0 12.0 0.00 0.00 0.00 64 1018.0
20260502191205 67 304 6.0 10.0 0.00 0.00 0.00 65 1018.0
20260502190704 67 313 5.0 9.0 0.00 0.00 0.00 66 1018.0
20260502190203 66 292 4.0 9.0 0.00 0.00 0.00 66 1018.0
20260502185705 66 297 6.0 12.0 0.00 0.00 0.00 66 1018.0
20260502185205 66 316 7.0 10.0 0.00 0.00 0.00 64 1018.1
20260502184704 66 286 6.0 10.0 0.00 0.00 0.00 66 1018.0
20260502184204 66 294 7.0 12.0 0.00 0.00 0.00 66 1018.1
20260502183704 66 287 8.0 12.0 0.00 0.00 0.00 66 1018.1
20260502183203 66 306 7.0 12.0 0.00 0.00 0.00 68 1018.1
20260502182704 65 307 8.0 12.0 0.00 0.00 0.00 66 1018.2
20260502182204 65 298 9.0 12.0 0.00 0.00 0.00 66 1018.2
20260502181705 65 289 6.0 12.0 0.00 0.00 0.00 67 1018.2
20260502181204 65 308 6.0 12.0 0.00 0.00 0.00 67 1018.3
20260502180205 65 316 7.0 12.0 0.00 0.00 0.00 68 1018.4
20260502170205 62 289 3.0 7.0 0.00 0.00 0.00 81 1018.6
20260502163205 58 258 2.0 3.0 0.00 0.00 0.00 96 1018.6
20260502162704 57 296 1.0 3.0 0.00 0.00 0.00 97 1018.5
20260502162205 57 276 2.0 3.0 0.00 0.00 0.00 97 1018.5
20260502161704 56 294 1.0 3.0 0.00 0.00 0.00 98 1018.5
20260502161204 56 277 0.0 3.0 0.00 0.00 0.00 98 1018.5
20260502160706 56 285 2.0 3.0 0.00 0.00 0.00 98 1018.5
20260502160204 55 265 0.0 2.0 0.00 0.00 0.00 98 1018.5
20260502152205 52 256 1.0 2.0 0.00 0.00 0.00 98 1018.4
20260502151703 52 238 2.0 3.0 0.00 0.00 0.00 98 1018.3
20260502151205 52 278 1.0 3.0 0.00 0.00 0.00 98 1018.3
20260502150704 51 293 0.0 1.0 0.00 0.00 0.00 98 1018.3
20260502150204 51 217 0.0 0.0 0.00 0.00 0.00 98 1018.3
20260502130704 49 258 3.0 6.0 0.00 0.00 0.00 97 1017.9
20260502130204 49 256 2.0 3.0 0.00 0.00 0.00 97 1017.9
20260502123204 50 247 2.0 3.0 0.00 0.00 0.00 97 1017.8
20260502122205 50 259 1.0 3.0 0.00 0.00 0.00 97 1017.7
20260502121703 50 236 2.0 3.0 0.00 0.00 0.00 97 1017.6
20260502121204 50 274 2.0 3.0 0.00 0.00 0.00 97 1017.6
20260502120705 49 223 0.0 2.0 0.00 0.00 0.00 97 1017.6
20260502120204 49 207 1.0 3.0 0.00 0.00 0.00 97 1017.6
20260502115703 49 235 1.0 3.0 0.00 0.00 0.00 97 1017.6
20260502115204 49 238 1.0 2.0 0.00 0.00 0.00 97 1017.6
20260502114204 49 234 1.0 3.0 0.00 0.00 0.00 97 1017.6
20260502113704 49 273 2.0 3.0 0.00 0.00 0.00 97 1017.4
20260502113204 49 253 3.0 6.0 0.00 0.00 0.00 97 1017.3
20260502112704 49 279 3.0 6.0 0.00 0.00 0.00 97 1017.4
20260502112206 49 318 2.0 3.0 0.00 0.00 0.00 97 1017.4
20260502111204 49 271 2.0 3.0 0.00 0.00 0.00 96 1017.5
20260502110705 49 243 0.0 1.0 0.00 0.00 0.00 96 1017.4
20260502110205 49 243 1.0 3.0 0.00 0.00 0.00 97 1017.3
20260502105206 49 244 1.0 3.0 0.00 0.00 0.00 96 1017.3
20260502104705 49 235 2.0 3.0 0.00 0.00 0.00 96 1017.3
20260502104204 49 249 3.0 3.0 0.00 0.00 0.00 96 1017.2
20260502103705 49 256 2.0 3.0 0.00 0.00 0.00 96 1017.2
20260502103204 49 257 3.0 7.0 0.00 0.00 0.00 96 1017.2
20260502102704 49 264 3.0 5.0 0.00 0.00 0.00 96 1017.2
20260502101703 50 264 3.0 3.0 0.00 0.00 0.00 96 1017.3
20260502101205 50 273 2.0 6.0 0.00 0.00 0.00 96 1017.4
20260502100705 50 267 2.0 6.0 0.00 0.00 0.00 96 1017.4
20260502100204 50 279 5.0 8.0 0.00 0.00 0.00 96 1017.3
20260502091205 50 262 4.0 9.0 0.00 0.00 0.00 94 1017.1
20260502090704 50 272 6.0 9.0 0.00 0.00 0.00 94 1017.1
20260502090205 50 270 5.0 8.0 0.00 0.00 0.00 94 1017.1
20260502071203 52 257 1.0 3.0 0.00 0.00 0.00 90 1017.1
20260502070704 52 271 3.0 3.0 0.00 0.00 0.00 90 1017.1
20260502070204 52 240 4.0 8.0 0.00 0.00 0.00 91 1017.0
20260502065704 52 254 6.0 12.0 0.00 0.00 0.00 91 1016.9
20260502065204 52 260 7.0 12.0 0.00 0.00 0.00 90 1016.9
20260502064705 52 269 8.0 12.0 0.00 0.00 0.00 90 1017.0
20260502064205 52 265 7.0 12.0 0.00 0.00 0.00 90 1017.0
20260502063203 52 275 7.0 12.0 0.00 0.00 0.00 90 1017.1
20260502062205 52 284 7.0 10.0 0.00 0.00 0.00 90 1017.0
20260502061205 53 270 6.0 12.0 0.00 0.00 0.00 89 1017.0
20260502060706 53 269 9.0 14.0 0.00 0.00 0.00 89 1016.8
20260502060203 53 263 8.0 14.0 0.00 0.00 0.00 89 1016.8
20260502055705 53 263 9.0 14.0 0.00 0.00 0.00 89 1016.8
20260502055204 53 267 10.0 15.0 0.00 0.00 0.00 89 1016.7
20260502054704 53 268 8.0 16.0 0.00 0.00 0.00 88 1016.7
20260502054204 53 266 7.0 12.0 0.00 0.00 0.00 88 1016.8
20260502053705 53 277 6.0 13.0 0.00 0.00 0.00 88 1016.8
20260502053205 53 266 9.0 14.0 0.00 0.00 0.00 88 1016.8
20260502052704 53 259 5.0 10.0 0.00 0.00 0.00 88 1016.7
20260502052204 53 261 3.0 7.0 0.00 0.00 0.00 88 1016.7
20260502051705 53 257 3.0 7.0 0.00 0.00 0.00 87 1016.7
20260502051204 53 268 3.0 7.0 0.00 0.00 0.00 87 1016.7
20260502050706 53 259 5.0 8.0 0.00 0.00 0.00 87 1016.5
20260502050204 53 259 5.0 8.0 0.00 0.00 0.00 87 1016.5
20260502045205 53 264 6.0 8.0 0.00 0.00 0.00 87 1016.5
20260502044705 53 271 6.0 8.0 0.00 0.00 0.00 87 1016.5
20260502044205 54 267 5.0 9.0 0.00 0.00 0.00 86 1016.5
20260502043705 54 270 5.0 9.0 0.00 0.00 0.00 86 1016.5
20260502043207 54 264 6.0 9.0 0.00 0.00 0.00 86 1016.5
20260502042703 54 269 5.0 9.0 0.00 0.00 0.00 86 1016.5
20260502042205 54 268 3.0 8.0 0.00 0.00 0.00 85 1016.4
20260502041705 54 241 5.0 10.0 0.00 0.00 0.00 85 1016.3
20260502040705 55 277 6.0 9.0 0.00 0.00 0.00 84 1016.2
20260502040204 55 257 6.0 12.0 0.00 0.00 0.00 84 1016.2
20260502035705 55 272 7.0 9.0 0.00 0.00 0.00 84 1016.1
20260502035204 55 281 6.0 12.0 0.00 0.00 0.00 84 1016.1
20260502034704 55 270 6.0 12.0 0.00 0.00 0.00 84 1016.1
20260502034204 55 277 6.0 12.0 0.00 0.00 0.00 84 1016.1
20260502033203 55 258 5.0 9.0 0.00 0.00 0.00 83 1016.1
20260502032706 55 283 7.0 12.0 0.00 0.00 0.00 83 1015.9
20260502031703 56 275 9.0 15.0 0.00 0.00 0.00 81 1015.9
20260502031204 57 286 10.0 15.0 0.00 0.00 0.00 79 1015.8
20260502030704 57 274 10.0 18.0 0.00 0.00 0.00 78 1015.8
20260502030204 58 274 9.0 13.0 0.00 0.00 0.00 77 1015.7
20260502025705 58 280 9.0 16.0 0.00 0.00 0.00 75 1015.6
20260502025205 58 265 9.0 14.0 0.00 0.00 0.00 75 1015.6
20260502024704 58 264 7.0 10.0 0.00 0.00 0.00 76 1015.7
20260502024204 58 276 7.0 12.0 0.00 0.00 0.00 76 1015.5